period_start,C,m1,H,J0,J1,J2,J3,J4,J5,JA,JB,JC,JD,JJ,JK,JN,#
2015-03-10 00:02:25,0.13,4.08,0.00,22.01,27.47,30.41,4.86,28.40,1023.16,2029.98,2118.77,2335.85,2510.13,349.59,350.72,31.85,0000 0000 0000 0000 000000
2015-03-10 00:07:26,0.12,4.08,0.00,21.98,27.47,30.44,4.89,28.52,1023.26,2029.98,2117.88,2335.08,2509.39,350.32,351.27,31.88,0000 0000 0000 0000 000000
2015-03-10 00:12:27,0.10,4.09,0.00,21.94,27.45,30.43,4.83,28.37,1023.38,2029.98,2117.04,2334.58,2508.92,350.40,351.46,31.90,0000 0000 0000 0000 000000
2015-03-10 00:17:28,0.11,4.09,0.00,21.91,27.45,30.33,4.92,28.35,1023.38,2029.99,2116.20,2334.01,2508.13,349.88,351.06,31.93,0000 0000 0000 0000 000000
2015-03-10 00:22:29,0.14,4.09,0.00,21.93,27.45,30.30,4.86,28.34,1023.46,2029.99,2115.37,2333.34,2507.63,350.07,351.36,31.96,0000 0000 0000 0000 000000
2015-03-10 00:27:31,0.08,4.10,0.00,21.90,27.43,30.35,4.91,28.44,1023.44,2029.99,2114.45,2332.91,2506.97,350.32,351.55,31.99,0000 0000 0000 0000 000000
2015-03-10 00:32:32,0.14,4.10,0.00,21.92,27.42,30.30,4.89,28.43,1023.42,2029.99,2113.68,2332.09,2506.17,349.83,351.05,32.02,0000 0000 0000 0000 000000
2015-03-10 00:37:33,0.15,4.10,0.00,21.89,27.42,30.37,4.84,28.27,1023.37,2029.99,2112.69,2331.52,2505.56,349.72,351.01,32.05,0000 0000 0000 0000 000000
2015-03-10 00:42:35,0.09,4.11,0.00,21.91,27.41,30.34,4.80,28.47,1023.45,2029.99,2111.62,2330.97,2504.89,349.25,350.51,32.08,0000 0000 0000 0000 000000
2015-03-10 00:47:36,0.12,4.11,0.00,21.93,27.40,30.31,4.82,28.27,1023.34,2029.99,2111.00,2330.19,2504.08,349.87,351.04,32.11,0000 0000 0000 0000 000000
2015-03-10 00:52:37,0.09,4.11,0.00,21.90,27.40,30.38,4.87,28.39,1023.44,2029.99,2110.25,2329.87,2503.62,350.06,351.24,32.14,0000 0000 0000 0000 000000
2015-03-10 00:57:38,0.12,4.12,0.00,21.87,27.38,30.33,4.92,28.54,1023.22,2030.00,2109.52,2329.07,2502.98,350.59,351.87,32.17,0000 0000 0000 0000 000000
2015-03-10 01:02:40,0.15,4.12,0.00,21.88,27.37,30.37,4.83,28.52,1023.23,2030.01,2108.64,2328.54,2502.16,349.71,351.15,32.20,0000 0000 0000 0000 000000
2015-03-10 01:07:41,0.05,4.13,0.00,21.87,27.37,30.34,4.88,28.47,1023.39,2030.00,2107.88,2328.00,2501.76,350.26,351.48,32.23,0000 0000 0000 0000 000000
2015-03-10 01:12:42,0.15,4.13,0.00,21.86,27.36,30.29,4.85,28.39,1023.45,2030.03,2106.92,2327.42,2501.00,350.11,351.74,32.26,0000 0000 0000 0000 000000
2015-03-10 01:17:44,0.11,4.13,0.00,21.86,27.35,30.26,4.79,28.52,1023.37,2030.03,2106.03,2326.88,2500.18,349.41,350.76,32.29,0000 0000 0000 0000 000000
2015-03-10 01:22:45,0.13,4.14,0.00,21.90,27.35,30.25,4.88,28.43,1023.31,2030.03,2105.14,2326.09,2499.71,349.80,351.02,32.31,0000 0000 0000 0000 000000
2015-03-10 01:27:46,0.12,4.14,0.00,21.88,27.33,30.30,4.91,28.73,1022.97,2030.03,2104.21,2325.54,2499.00,350.58,351.69,32.34,0000 0000 0000 0000 000000
2015-03-10 01:32:47,0.10,4.14,0.00,21.86,27.32,30.33,4.82,28.45,1023.16,2030.04,2103.37,2325.00,2498.23,350.17,351.64,32.37,0000 0000 0000 0000 000000
2015-03-10 01:37:48,0.18,4.15,0.00,21.86,27.32,30.29,4.86,28.86,1023.25,2030.23,2102.52,2324.28,2497.74,350.54,351.82,32.40,0000 0000 0000 0000 000000
2015-03-10 01:42:49,0.11,4.15,0.00,21.83,27.30,30.27,4.85,28.39,1023.42,2030.11,2101.45,2323.62,2497.01,350.63,351.99,32.43,0000 0000 0000 0000 000000
2015-03-10 01:47:51,0.15,4.16,0.00,21.82,27.30,30.29,4.85,28.27,1023.25,2030.35,2100.72,2323.02,2496.24,350.54,351.87,32.46,0000 0000 0000 0000 000000
2015-03-10 01:52:52,0.17,4.16,0.00,21.81,27.29,30.21,4.85,28.34,1023.02,2030.71,2099.92,2322.60,2495.88,349.71,350.88,32.49,0000 0000 0000 0000 000000
2015-03-10 01:57:53,0.11,4.17,0.00,21.31,27.27,29.80,4.89,28.75,1022.96,2030.77,2098.99,2321.97,2495.06,350.26,352.22,32.52,0000 0000 0000 0000 000000
2015-03-10 02:02:54,0.15,4.17,0.00,20.59,27.26,29.28,4.92,28.71,1022.90,2030.85,2098.04,2321.20,2494.53,350.46,353.03,32.55,0000 0000 0000 0000 000000
2015-03-10 02:07:56,0.10,4.17,0.00,20.25,27.24,28.87,4.85,28.98,1022.69,2030.91,2097.12,2320.80,2493.96,350.12,353.07,32.58,0000 0000 0000 0000 000000
2015-03-10 02:12:57,0.15,4.18,0.00,20.76,27.22,28.88,4.90,28.98,1022.85,2030.97,2096.28,2320.06,2493.17,349.24,351.82,32.61,0000 0000 0000 0000 000000
2015-03-10 02:17:58,0.09,4.18,0.00,21.05,27.19,29.06,4.91,28.85,1022.54,2030.99,2095.49,2319.73,2492.85,350.29,352.32,32.64,0000 0000 0000 0000 000000
2015-03-10 02:23:00,0.11,4.18,0.00,21.10,27.15,29.25,4.86,28.74,1022.73,2030.99,2094.74,2319.04,2492.06,350.06,352.12,32.67,0000 0000 0000 0000 000000
2015-03-10 02:28:01,0.08,4.19,0.00,21.18,27.11,29.49,4.85,28.68,1022.49,2031.01,2094.00,2318.77,2491.75,350.14,351.73,32.70,0000 0000 0000 0000 000000
2015-03-10 02:33:02,0.14,4.19,0.00,21.17,27.08,29.46,4.93,28.56,1022.63,2031.09,2093.18,2318.04,2491.05,350.59,352.47,32.72,0000 0000 0000 0000 000000
2015-03-10 02:38:04,0.19,4.20,0.00,21.23,27.05,29.67,4.82,28.89,1022.49,2031.41,2092.32,2317.72,2490.57,350.20,352.00,32.75,0000 0000 0000 0000 000000
2015-03-10 02:43:05,0.16,4.20,0.00,21.27,27.01,29.73,4.97,28.88,1022.48,2031.72,2091.24,2317.02,2489.97,350.56,352.40,32.78,0000 0000 0000 0000 000000
2015-03-10 02:48:06,0.11,4.20,0.00,21.28,26.98,29.79,4.86,28.93,1022.48,2031.96,2090.84,2316.73,2489.24,349.85,351.63,32.81,0000 0000 0000 0000 000000
2015-03-10 02:53:07,0.09,4.21,0.00,21.33,26.95,29.74,4.89,28.94,1022.48,2031.99,2090.03,2316.03,2488.97,350.46,352.11,32.84,0000 0000 0000 0000 000000
2015-03-10 02:58:09,0.15,4.21,0.00,21.30,26.92,29.71,4.85,28.72,1022.52,2031.99,2089.16,2315.56,2488.13,349.65,351.40,32.87,0000 0000 0000 0000 000000
2015-03-10 03:03:10,0.12,4.21,0.00,21.31,26.90,29.73,4.90,28.60,1022.69,2031.99,2088.19,2314.93,2487.34,350.48,352.25,32.90,0000 0000 0000 0000 000000
2015-03-10 03:08:11,0.18,4.22,0.00,21.34,26.87,29.73,4.80,28.63,1022.70,2031.99,2086.84,2314.07,2486.41,349.86,351.90,32.93,0000 0000 0000 0000 000000
2015-03-10 03:13:13,0.16,4.23,0.00,21.36,26.85,29.76,4.91,28.70,1022.80,2032.02,2085.82,2313.26,2485.65,350.43,351.93,32.96,0000 0000 0000 0000 000000
2015-03-10 03:18:14,0.15,4.23,0.00,21.37,26.83,29.74,4.86,28.59,1022.94,2032.05,2084.73,2312.66,2484.83,349.85,351.59,32.99,0000 0000 0000 0000 000000
2015-03-10 03:23:15,0.14,4.23,0.00,21.42,26.82,29.75,4.89,28.73,1022.59,2032.07,2083.68,2311.94,2483.97,349.78,351.69,33.02,0000 0000 0000 0000 000000
2015-03-10 03:28:16,0.16,4.24,0.00,21.45,26.80,29.73,4.84,28.66,1022.49,2032.23,2082.81,2311.12,2483.12,349.52,350.88,33.05,0000 0000 0000 0000 000000
2015-03-10 03:33:18,0.21,4.24,0.00,21.43,26.80,29.76,4.88,28.64,1022.48,2032.51,2081.91,2310.60,2482.44,349.98,351.23,33.08,0000 0000 0000 0000 000000
2015-03-10 03:38:19,0.11,4.25,0.00,21.42,26.77,29.71,4.85,28.88,1022.42,2032.66,2081.01,2310.00,2481.80,349.41,351.07,33.11,0000 0000 0000 0000 000000
2015-03-10 03:43:20,0.14,4.25,0.00,21.47,26.77,29.77,4.83,28.89,1022.40,2032.60,2080.11,2309.23,2481.04,349.94,351.57,33.14,0000 0000 0000 0000 000000
2015-03-10 03:48:21,0.17,4.26,0.00,21.49,26.76,29.77,4.86,28.75,1022.43,2032.90,2079.32,2308.81,2480.37,350.32,351.79,33.16,0000 0000 0000 0000 000000
2015-03-10 03:53:22,0.12,4.26,0.00,21.47,26.75,29.78,4.91,28.95,1022.32,2032.95,2078.36,2308.05,2479.83,350.05,351.54,33.19,0000 0000 0000 0000 000000
2015-03-10 03:58:24,0.14,4.27,0.00,21.48,26.75,29.78,4.82,28.79,1022.31,2032.95,2077.55,2307.50,2479.03,348.89,350.40,33.22,0000 0000 0000 0000 000000
2015-03-10 04:03:25,0.10,4.27,0.00,21.43,26.75,29.72,4.84,28.82,1022.32,2032.96,2076.69,2306.96,2478.22,350.18,351.74,33.25,0000 0000 0000 0000 000000
2015-03-10 04:08:26,0.12,4.27,0.00,21.51,26.75,29.74,4.91,28.88,1022.33,2032.97,2075.89,2306.17,2477.68,350.36,351.33,33.28,0000 0000 0000 0000 000000
2015-03-10 04:13:28,0.10,4.28,0.00,21.55,26.74,29.80,4.87,28.89,1022.48,2032.98,2075.03,2305.77,2477.02,350.29,351.44,33.31,0000 0000 0000 0000 000000
2015-03-10 04:18:29,0.13,4.28,0.00,21.52,26.74,29.78,4.86,28.88,1022.32,2032.98,2074.14,2305.04,2476.29,349.78,351.04,33.34,0000 0000 0000 0000 000000
2015-03-10 04:23:31,0.15,4.28,0.00,21.53,26.73,29.74,4.87,28.95,1022.46,2032.97,2073.16,2304.35,2475.67,350.23,351.67,33.37,0000 0000 0000 0000 000000
2015-03-10 04:28:32,0.12,4.29,0.00,21.49,26.73,29.68,4.82,28.87,1022.51,2032.98,2072.18,2303.70,2474.90,349.14,350.75,33.40,0000 0000 0000 0000 000000
2015-03-10 04:33:34,0.13,4.29,0.00,21.53,26.73,29.74,4.93,28.78,1022.52,2032.99,2071.12,2303.02,2474.04,349.78,351.22,33.43,0000 0000 0000 0000 000000
2015-03-10 04:38:36,0.17,4.30,0.00,21.56,26.73,29.82,4.87,28.87,1022.67,2032.98,2070.10,2302.24,2473.17,350.13,351.53,33.46,0000 0000 0000 0000 000000
2015-03-10 04:43:37,0.12,4.30,0.00,21.56,26.73,29.83,4.88,28.75,1022.76,2032.99,2069.20,2301.78,2472.50,349.64,351.28,33.49,0000 0000 0000 0000 000000
2015-03-10 04:48:38,0.14,4.31,0.00,21.58,26.73,29.82,4.86,28.45,1022.95,2032.99,2068.16,2300.99,2471.71,349.67,351.36,33.52,0000 0000 0000 0000 000000
2015-03-10 04:53:40,0.16,4.31,0.00,21.61,26.73,29.86,4.81,28.38,1022.92,2032.99,2067.03,2300.15,2470.89,350.00,351.40,33.55,0000 0000 0000 0000 000000
2015-03-10 04:58:41,0.16,4.31,0.00,21.61,26.74,29.85,4.87,28.57,1022.96,2032.99,2066.03,2299.41,2470.03,350.15,351.71,33.57,0000 0000 0000 0000 000000
2015-03-10 05:03:42,0.12,4.32,0.00,21.58,26.74,29.79,4.88,28.58,1022.91,2032.99,2065.12,2298.83,2469.15,349.73,351.31,33.60,0000 0000 0000 0000 000000
2015-03-10 05:08:44,0.14,4.32,0.00,21.58,26.74,29.78,4.91,28.48,1022.86,2032.99,2064.22,2298.04,2468.42,350.49,351.85,33.63,0000 0000 0000 0000 000000
2015-03-10 05:13:45,0.15,4.33,0.00,21.54,26.75,29.78,4.85,28.43,1022.85,2032.99,2063.39,2297.41,2467.74,350.25,351.80,33.66,0000 0000 0000 0000 000000
2015-03-10 05:18:46,0.10,4.33,0.00,21.60,26.75,29.82,4.84,28.31,1022.96,2032.98,2062.45,2296.84,2466.99,349.67,351.23,33.69,0000 0000 0000 0000 000000
2015-03-10 05:23:47,0.15,4.33,0.00,21.58,26.75,29.76,4.79,28.37,1023.13,2032.99,2061.45,2296.04,2466.10,349.43,351.13,33.72,0000 0000 0000 0000 000000
2015-03-10 05:28:48,0.17,4.34,0.00,21.54,26.75,29.82,4.89,28.30,1022.99,2032.99,2060.39,2295.32,2465.35,350.21,351.82,33.75,0000 0000 0000 0000 000000
2015-03-10 05:33:50,0.15,4.34,0.00,21.53,26.75,29.78,4.86,28.09,1023.05,2032.99,2059.31,2294.57,2464.59,349.90,351.52,33.78,0000 0000 0000 0000 000000
2015-03-10 05:38:51,0.09,4.35,0.00,21.55,26.75,29.78,4.91,28.24,1022.97,2032.99,2058.33,2293.93,2463.88,350.11,351.63,33.81,0000 0000 0000 0000 000000
2015-03-10 05:43:52,0.16,4.35,0.00,21.55,26.75,29.77,4.92,28.18,1022.96,2032.98,2057.43,2293.11,2463.06,350.32,352.04,33.84,0000 0000 0000 0000 000000
2015-03-10 05:48:54,0.12,4.35,0.00,21.56,26.75,29.80,4.82,28.21,1023.04,2032.99,2056.74,2292.68,2462.34,349.46,351.15,33.87,0000 0000 0000 0000 000000
2015-03-10 05:53:55,0.08,4.36,0.00,21.57,26.76,29.83,4.81,28.19,1023.21,2032.97,2055.89,2292.02,2461.72,349.28,350.95,33.90,0000 0000 0000 0000 000000
2015-03-10 05:58:57,0.18,4.36,0.00,21.59,26.77,29.85,4.89,27.93,1023.42,2032.98,2054.82,2291.24,2460.99,350.51,351.91,33.93,0000 0000 0000 0000 000000
2015-03-10 06:03:58,0.12,4.37,0.00,21.62,26.77,29.82,4.91,28.11,1023.50,2032.98,2053.94,2290.69,2460.15,350.26,351.85,33.96,0000 0000 0000 0000 000000
2015-03-10 06:08:59,0.11,4.37,0.00,21.67,26.77,29.87,4.85,28.02,1023.53,2032.98,2053.11,2290.02,2459.61,349.33,350.92,33.98,0000 0000 0000 0000 000000
2015-03-10 06:14:00,0.14,4.37,0.00,21.71,26.78,29.88,4.80,28.15,1023.61,2032.99,2052.37,2289.41,2458.97,349.73,351.29,34.01,0000 0000 0000 0000 000000
2015-03-10 06:19:02,0.08,4.38,0.00,21.70,26.80,29.91,4.94,28.35,1023.88,2032.98,2051.70,2288.94,2458.15,350.21,351.97,34.04,0000 0000 0000 0000 000000
2015-03-10 06:24:03,0.14,4.38,0.00,21.75,26.80,29.95,4.88,28.42,1023.84,2032.98,2050.90,2288.12,2457.48,350.02,351.89,34.07,0000 0000 0000 0000 000000
2015-03-10 06:29:04,0.10,4.38,0.00,21.80,26.82,29.96,4.90,28.36,1023.89,2032.96,2050.04,2287.76,2456.88,350.10,351.70,34.10,0000 0000 0000 0000 000000
2015-03-10 06:34:05,0.12,4.39,0.00,21.82,26.83,29.92,4.94,28.61,1023.68,2032.88,2049.20,2286.99,2456.06,350.18,351.69,34.13,0000 0000 0000 0000 000000
2015-03-10 06:39:07,0.13,4.39,0.00,21.85,26.85,29.96,4.93,28.64,1023.68,2032.77,2048.15,2286.15,2455.27,350.37,351.88,34.16,0000 0000 0000 0000 000000
2015-03-10 06:44:08,0.07,4.39,0.00,21.91,26.86,30.03,4.82,28.59,1023.41,2032.32,2047.09,2285.49,2454.48,349.43,350.76,34.19,0000 0000 0000 0000 000000
2015-03-10 06:49:09,0.09,4.40,0.00,21.88,26.88,30.06,4.91,28.52,1023.48,2032.27,2046.51,2284.85,2453.73,350.37,351.53,34.22,0000 0000 0000 0000 000000
2015-03-10 06:54:10,0.10,4.40,0.00,21.87,26.90,30.06,4.88,28.68,1023.41,2032.05,2045.52,2284.05,2452.98,350.25,351.52,34.25,0000 0000 0000 0000 000000
2015-03-10 06:59:12,0.14,4.40,0.00,21.92,26.92,30.09,4.80,28.60,1023.36,2032.03,2044.75,2283.40,2452.18,349.51,350.90,34.28,0000 0000 0000 0000 000000
2015-03-10 07:04:13,0.13,4.41,0.00,21.98,26.94,30.09,4.85,28.57,1023.22,2032.00,2043.81,2282.71,2451.33,349.67,350.83,34.31,0000 0000 0000 0000 000000
2015-03-10 07:09:14,0.11,4.41,0.00,21.91,26.96,30.11,4.85,28.13,1023.34,2032.00,2042.99,2282.01,2450.60,350.12,351.41,34.34,0000 0000 0000 0000 000000
2015-03-10 07:14:16,0.13,4.42,0.00,21.95,26.97,30.09,4.86,28.46,1023.42,2032.00,2042.14,2281.34,2449.97,350.09,351.31,34.37,0000 0000 0000 0000 000000
2015-03-10 07:19:17,0.12,4.42,0.00,21.99,27.00,30.18,4.92,28.48,1023.45,2032.00,2041.36,2280.85,2449.19,350.18,351.37,34.39,0000 0000 0000 0000 000000
2015-03-10 07:24:50,0.14,4.42,0.00,21.99,27.02,30.15,4.89,28.29,1023.45,2032.00,2040.31,2280.02,2448.37,349.80,351.08,34.43,0000 0000 0000 0000 000000
2015-03-10 07:29:51,0.14,4.43,0.00,21.99,27.04,30.13,4.97,28.45,1023.47,2031.98,2039.56,2279.27,2447.74,350.50,351.90,34.46,0000 0000 0000 0000 000000
2015-03-10 07:34:52,0.11,4.43,0.00,22.01,27.06,30.18,4.91,28.47,1023.56,2031.99,2038.66,2278.72,2447.02,350.97,352.17,34.49,0000 0000 0000 0000 000000
2015-03-10 07:39:53,0.12,4.44,0.00,22.05,27.07,30.19,4.83,28.27,1023.60,2031.95,2037.75,2278.00,2446.20,349.99,351.41,34.52,0000 0000 0000 0000 000000
2015-03-10 07:44:55,0.13,4.44,0.00,22.02,27.10,30.20,4.88,28.27,1023.50,2031.86,2036.92,2277.17,2445.43,349.91,351.04,34.54,0000 0000 0000 0000 000000
2015-03-10 07:49:56,0.04,4.44,0.00,22.04,27.12,30.23,4.87,28.48,1023.56,2031.49,2036.04,2276.66,2444.83,349.91,351.16,34.57,0000 0000 0000 0000 000000
2015-03-10 07:54:57,0.07,4.44,0.00,22.06,27.14,30.27,4.87,28.33,1023.76,2031.23,2035.14,2275.99,2444.03,349.66,350.93,34.60,0000 0000 0000 0000 000000
2015-03-10 07:59:58,0.14,4.45,0.00,22.05,27.15,30.31,4.80,28.30,1023.90,2031.12,2034.27,2275.21,2443.26,350.22,351.50,34.63,0000 0000 0000 0000 000000
2015-03-10 08:05:00,0.14,4.45,0.00,22.03,27.17,30.33,4.92,28.46,1023.94,2031.04,2033.35,2274.60,2442.48,350.35,351.71,34.66,0000 0000 0000 0000 000000
2015-03-10 08:10:01,0.10,4.45,0.00,22.07,27.19,30.30,4.91,28.25,1023.93,2031.01,2032.40,2273.92,2441.79,350.21,351.51,34.69,0000 0000 0000 0000 000000
2015-03-10 08:15:02,0.14,4.46,0.00,22.08,27.21,30.29,4.84,28.16,1023.91,2031.00,2031.62,2273.11,2441.01,350.67,351.82,34.72,0000 0000 0000 0000 000000
2015-03-10 08:20:04,0.15,4.46,0.00,22.11,27.22,30.30,4.89,28.38,1023.78,2031.00,2030.66,2272.51,2440.19,350.38,351.44,34.75,0000 0000 0000 0000 000000
2015-03-10 08:25:05,0.12,4.47,0.00,22.08,27.24,30.30,4.82,28.38,1023.54,2031.00,2029.73,2271.87,2439.50,349.72,350.81,34.78,0000 0000 0000 0000 000000
2015-03-10 08:30:06,0.16,4.47,0.00,22.10,27.26,30.33,4.83,28.43,1023.47,2031.00,2028.70,2271.02,2438.72,349.74,351.01,34.81,0000 0000 0000 0000 000000
2015-03-10 08:35:08,0.14,4.48,0.00,22.12,27.27,30.28,4.87,28.32,1023.46,2030.98,2027.76,2270.15,2437.90,350.28,351.18,34.84,0000 0000 0000 0000 000000
2015-03-10 08:40:09,0.17,4.48,0.00,22.11,27.29,30.36,4.89,28.56,1023.44,2030.97,2026.68,2269.56,2437.04,349.85,351.18,34.87,0000 0000 0000 0000 000000
2015-03-10 08:45:11,0.13,4.48,0.00,22.08,27.30,30.31,4.86,28.27,1023.44,2030.96,2025.72,2268.82,2436.20,350.32,351.51,34.90,0000 0000 0000 0000 000000
2015-03-10 08:50:12,0.11,4.49,0.00,22.06,27.32,30.35,4.87,28.27,1023.47,2030.82,2024.81,2268.03,2435.35,350.01,351.09,34.93,0000 0000 0000 0000 000000
2015-03-10 08:55:13,0.09,4.49,0.00,22.08,27.32,30.29,4.83,28.09,1023.47,2030.65,2023.91,2267.32,2434.66,349.58,350.74,34.95,0000 0000 0000 0000 000000
2015-03-10 09:00:14,-0.01,2.39,0.00,22.05,27.34,30.27,4.22,24.45,1023.60,2032.16,2734.53,2799.85,3023.57,308.16,309.20,0.01,0000 0000 0000 0000 000002
2015-03-10 09:05:16,-0.07,0.00,0.00,22.10,27.36,30.25,4.81,27.89,1023.93,2033.95,3441.62,3330.86,3611.75,349.89,351.27,0.02,0000 0000 0000 0000 000000
2015-03-10 09:10:17,-0.04,0.00,0.00,22.13,27.37,30.26,4.85,27.82,1023.97,2033.74,3439.03,3329.37,3609.67,350.07,351.47,0.05,0000 0000 0000 0000 000000
2015-03-10 09:15:18,-0.01,0.00,0.00,22.13,27.37,30.32,4.85,27.77,1023.94,2033.28,3436.86,3327.96,3607.90,349.88,351.34,0.08,0000 0000 0000 0000 000000
2015-03-10 09:20:19,0.04,0.01,0.00,22.14,27.40,30.30,4.82,27.84,1023.94,2033.16,3434.85,3326.72,3606.25,349.76,350.84,0.11,0000 0000 0000 0000 000000
2015-03-10 09:25:20,0.09,0.01,0.00,22.18,27.40,30.35,4.82,27.81,1023.94,2033.14,3432.94,3325.53,3604.72,349.60,350.77,0.13,0000 0000 0000 0000 000000
2015-03-10 09:30:21,0.12,0.01,0.00,22.15,27.41,30.39,4.88,27.52,1023.93,2033.09,3431.04,3324.22,3603.20,350.04,351.15,0.16,0000 0000 0000 0000 000000
2015-03-10 09:35:22,0.13,0.02,0.00,22.20,27.42,30.33,4.80,27.52,1023.84,2033.05,3429.18,3322.96,3601.68,349.65,350.83,0.19,0000 0000 0000 0000 000000
2015-03-10 09:40:23,0.14,0.02,0.00,22.22,27.42,30.38,4.90,27.80,1023.51,2033.03,3427.24,3321.64,3600.22,350.25,351.23,0.22,0000 0000 0000 0000 000000
2015-03-10 09:45:24,0.13,0.03,0.00,22.18,27.44,30.41,4.89,27.64,1023.48,2033.04,3425.47,3320.40,3598.72,350.27,351.34,0.25,0000 0000 0000 0000 000000
2015-03-10 09:50:26,0.12,0.03,0.00,22.20,27.45,30.35,4.85,27.78,1023.46,2033.02,3423.59,3319.10,3597.27,350.26,351.18,0.28,0000 0000 0000 0000 000000
2015-03-10 09:55:27,0.16,0.03,0.00,22.21,27.46,30.32,4.83,27.46,1023.45,2033.00,3421.63,3317.72,3595.72,350.09,351.05,0.31,0000 0000 0000 0000 000000
2015-03-10 10:00:28,0.13,0.04,0.00,22.22,27.47,30.37,4.86,27.75,1023.45,2033.00,3419.72,3316.45,3594.16,349.38,350.46,0.34,0000 0000 0000 0000 000000
2015-03-10 10:05:29,0.16,0.04,0.00,22.24,27.47,30.43,4.79,27.60,1023.43,2033.00,3417.67,3314.96,3592.58,349.73,350.65,0.37,0000 0000 0000 0000 000000
2015-03-10 10:10:31,0.15,0.05,0.00,22.26,27.49,30.38,4.87,27.61,1023.39,2033.00,3415.67,3313.49,3590.85,350.73,351.75,0.40,0000 0000 0000 0000 000000
2015-03-10 10:15:32,0.15,0.05,0.00,22.26,27.50,30.38,4.85,27.73,1023.18,2033.00,3413.55,3312.00,3589.24,349.87,350.84,0.43,0000 0000 0000 0000 000000
2015-03-10 10:20:33,0.17,0.06,0.00,22.29,27.51,30.43,4.82,27.84,1022.98,2033.00,3411.35,3310.39,3587.36,349.46,349.99,0.46,0000 0000 0000 0000 000000
2015-03-10 10:25:34,0.17,0.06,0.00,22.28,27.52,30.46,4.90,27.83,1022.96,2033.00,3409.24,3308.72,3585.50,349.95,350.65,0.49,0000 0000 0000 0000 000000
2015-03-10 10:30:36,0.17,0.07,0.00,22.24,27.52,30.41,4.84,28.02,1022.96,2033.00,3407.10,3307.16,3583.72,349.92,350.68,0.52,0000 0000 0000 0000 000000
2015-03-10 10:35:37,0.17,0.07,0.00,22.29,27.55,30.45,4.77,27.80,1022.96,2033.00,3404.84,3305.48,3581.95,349.64,350.48,0.55,0000 0000 0000 0000 000000
2015-03-10 10:40:38,0.17,0.08,0.00,22.37,27.55,30.50,4.93,28.08,1022.96,2033.00,3402.74,3303.86,3580.10,350.76,351.24,0.57,0000 0000 0000 0000 000000
2015-03-10 10:45:39,0.13,0.08,0.00,22.34,27.56,30.46,4.87,27.80,1022.95,2032.98,3400.86,3302.49,3578.46,349.42,350.26,0.60,0000 0000 0000 0000 000000
2015-03-10 10:50:40,0.13,0.09,0.00,22.37,27.57,30.44,4.84,28.02,1022.93,2032.96,3399.06,3301.15,3576.93,349.89,350.56,0.63,0000 0000 0000 0000 000000
2015-03-10 10:55:41,0.15,0.09,0.00,22.38,27.57,30.58,4.85,28.02,1022.57,2032.97,3397.12,3299.73,3575.46,350.26,350.71,0.66,0000 0000 0000 0000 000000
2015-03-10 11:00:43,0.13,0.09,0.00,22.35,27.59,30.52,4.91,28.09,1022.52,2032.96,3395.29,3298.50,3573.90,350.26,350.74,0.69,0000 0000 0000 0000 000000
2015-03-10 11:05:44,0.14,0.10,0.00,22.41,27.60,30.53,4.93,28.20,1022.77,2032.94,3393.37,3297.10,3572.40,350.22,350.61,0.72,0000 0000 0000 0000 000000
2015-03-10 11:10:45,0.13,0.10,0.00,22.33,27.60,30.48,4.85,28.02,1022.97,2032.89,3391.59,3295.82,3570.98,350.42,351.01,0.75,0000 0000 0000 0000 000000
2015-03-10 11:15:46,0.14,0.11,0.00,22.39,27.61,30.55,4.79,27.73,1023.25,2032.89,3389.91,3294.52,3569.56,349.70,350.60,0.78,0000 0000 0000 0000 000000
2015-03-10 11:20:47,0.10,0.11,0.00,22.32,27.62,30.49,4.96,28.02,1023.16,2032.76,3388.05,3293.32,3568.22,350.36,351.07,0.81,0000 0000 0000 0000 000000
2015-03-10 11:25:48,0.11,0.11,0.00,22.38,27.62,30.55,4.88,27.74,1023.04,2032.59,3386.15,3291.91,3566.69,349.90,350.42,0.84,0000 0000 0000 0000 000000
2015-03-10 11:30:49,0.11,0.12,0.00,22.34,27.63,30.48,4.89,27.87,1023.06,2032.43,3384.36,3290.63,3565.36,350.11,350.60,0.87,0000 0000 0000 0000 000000
2015-03-10 11:35:51,0.12,0.12,0.00,22.38,27.64,30.51,4.83,27.79,1023.00,2032.17,3382.30,3289.24,3563.75,349.97,350.76,0.90,0000 0000 0000 0000 000000
2015-03-10 11:40:52,0.13,0.12,0.00,22.40,27.65,30.60,4.89,28.18,1022.99,2032.16,3380.45,3287.88,3562.33,350.55,351.25,0.93,0000 0000 0000 0000 000000
2015-03-10 11:45:53,0.15,0.13,0.00,22.35,27.65,30.53,4.87,28.03,1022.96,2032.16,3378.66,3286.64,3560.81,350.58,351.07,0.95,0000 0000 0000 0000 000000
2015-03-10 11:50:55,0.14,0.13,0.00,22.40,27.65,30.61,4.82,27.76,1022.96,2032.22,3376.89,3285.41,3559.52,349.76,350.30,0.98,0000 0000 0000 0000 000000
2015-03-10 11:55:56,0.14,0.14,0.00,22.28,27.66,30.51,4.84,27.90,1022.89,2032.09,3374.94,3283.89,3557.84,349.88,350.60,1.01,0000 0000 0000 0000 000000
2015-03-10 12:00:57,0.14,0.14,0.00,22.35,27.67,30.51,4.87,27.94,1022.60,2032.09,3372.96,3282.50,3556.30,350.12,350.54,1.04,0000 0000 0000 0000 000000
2015-03-10 12:05:58,0.15,0.15,0.00,22.33,27.67,30.58,4.94,27.93,1022.45,2032.06,3371.04,3281.10,3554.73,350.06,350.53,1.07,0000 0000 0000 0000 000000
2015-03-10 12:11:00,0.12,0.15,0.00,22.41,27.67,30.58,4.79,27.99,1022.30,2032.04,3369.22,3279.79,3553.37,349.94,350.25,1.10,0000 0000 0000 0000 000000
2015-03-10 12:16:01,0.13,0.15,0.00,22.37,27.67,30.61,4.86,28.07,1022.38,2032.02,3367.48,3278.60,3551.92,350.02,350.60,1.13,0000 0000 0000 0000 000000
2015-03-10 12:21:02,0.13,0.16,0.00,22.30,27.67,30.54,4.90,28.13,1022.46,2032.02,3365.66,3277.33,3550.54,350.25,350.81,1.16,0000 0000 0000 0000 000000
2015-03-10 12:26:03,0.11,0.16,0.00,22.37,27.67,30.58,4.90,27.90,1022.48,2032.02,3363.88,3276.11,3549.16,350.69,351.18,1.19,0000 0000 0000 0000 000000
2015-03-10 12:31:05,0.14,0.17,0.00,22.31,27.67,30.56,4.87,28.16,1022.48,2032.01,3362.06,3274.78,3547.74,349.89,350.37,1.22,0000 0000 0000 0000 000000
2015-03-10 12:36:06,0.12,0.17,0.00,22.33,27.68,30.50,4.80,27.93,1022.48,2032.01,3360.42,3273.60,3546.47,349.99,350.44,1.25,0000 0000 0000 0000 000000
2015-03-10 12:41:07,0.13,0.17,0.00,22.34,27.68,30.55,4.83,28.09,1022.47,2032.03,3358.53,3272.38,3544.94,349.93,350.24,1.28,0000 0000 0000 0000 000000
2015-03-10 12:46:09,0.12,0.18,0.00,22.25,27.69,30.42,4.79,27.93,1022.53,2032.05,3356.84,3271.17,3543.71,349.95,350.55,1.31,0000 0000 0000 0000 000000
2015-03-10 12:51:10,0.13,0.18,0.00,22.24,27.69,30.46,4.89,27.94,1022.50,2032.07,3355.14,3269.94,3542.42,350.25,350.89,1.34,0000 0000 0000 0000 000000
2015-03-10 12:56:11,0.14,0.19,0.00,22.23,27.70,30.47,4.86,27.95,1022.50,2032.07,3353.33,3268.68,3540.96,349.86,350.40,1.37,0000 0000 0000 0000 000000
2015-03-10 13:01:13,0.13,0.19,0.00,22.20,27.70,30.52,4.88,27.80,1022.50,2032.07,3351.57,3267.39,3539.59,349.96,350.73,1.39,0000 0000 0000 0000 000000